TimeEST,TemperatureF,Dew PointF,Humidity,Sea Level PressureIn,VisibilityMPH,Wind Direction,Wind SpeedMPH,Gust SpeedMPH,PrecipitationIn,Events,Conditions,WindDirDegrees,DateUTC
12:14 AM,-5.8,-9.4,84,29.97,10.0,Calm,Calm,-,N/A,,Scattered Clouds,0,2013-02-03 05:14:00
12:40 AM,-5.8,-11.2,77,29.96,10.0,Calm,Calm,-,N/A,,Clear,0,2013-02-03 05:40:00
12:54 AM,-5.8,-9.4,84,29.95,10.0,Calm,Calm,-,N/A,,Scattered Clouds,0,2013-02-03 05:54:00
1:15 AM,-5.8,-11.2,77,29.94,10.0,Calm,Calm,-,N/A,,Mostly Cloudy,0,2013-02-03 06:15:00
1:34 AM,-5.8,-9.4,84,29.93,10.0,Calm,Calm,-,N/A,,Overcast,0,2013-02-03 06:34:00
1:55 AM,-5.8,-11.2,77,29.92,10.0,Calm,Calm,-,N/A,,Mostly Cloudy,0,2013-02-03 06:55:00
2:15 AM,-5.8,-11.2,77,29.92,10.0,West,3.5,-,N/A,,Scattered Clouds,260,2013-02-03 07:15:00
2:34 AM,-2.2,-7.6,78,29.92,10.0,West,3.5,-,N/A,,Mostly Cloudy,260,2013-02-03 07:34:00
2:55 AM,-2.2,-7.6,78,29.91,10.0,Calm,Calm,-,N/A,,Overcast,0,2013-02-03 07:55:00
3:14 AM,-5.8,-9.4,84,29.90,10.0,Calm,Calm,-,N/A,,Mostly Cloudy,0,2013-02-03 08:14:00
3:35 AM,3.2,-0.4,85,29.89,10.0,WSW,3.5,-,N/A,,Mostly Cloudy,250,2013-02-03 08:35:00
3:55 AM,6.8,1.4,79,29.88,10.0,WSW,3.5,-,N/A,,Overcast,250,2013-02-03 08:55:00
4:14 AM,6.8,1.4,79,29.87,10.0,West,5.8,-,N/A,,Mostly Cloudy,270,2013-02-03 09:14:00
4:54 AM,6.8,1.4,79,29.85,10.0,West,4.6,-,N/A,,Overcast,260,2013-02-03 09:54:00
5:14 AM,6.8,-0.4,72,29.84,10.0,Calm,Calm,-,N/A,,Overcast,0,2013-02-03 10:14:00
5:35 AM,5.0,-2.2,72,29.84,10.0,Calm,Calm,-,N/A,,Overcast,0,2013-02-03 10:35:00
6:15 AM,3.2,-2.2,78,29.83,10.0,Calm,Calm,-,N/A,,Mostly Cloudy,0,2013-02-03 11:15:00
6:35 AM,3.2,-2.2,78,29.83,10.0,West,3.5,-,N/A,,Overcast,270,2013-02-03 11:35:00
6:54 AM,3.2,-4.0,72,29.82,10.0,West,4.6,-,N/A,,Overcast,270,2013-02-03 11:54:00
7:15 AM,3.2,-4.0,72,29.83,10.0,West,5.8,-,N/A,,Overcast,270,2013-02-03 12:15:00
7:34 AM,3.2,-4.0,72,29.83,10.0,West,6.9,-,N/A,,Overcast,270,2013-02-03 12:34:00
7:54 AM,3.2,-2.2,78,29.82,10.0,West,6.9,-,N/A,Snow,Light Snow,260,2013-02-03 12:54:00
8:15 AM,3.2,-2.2,78,29.82,3.0,West,8.1,-,N/A,Snow,Light Snow,270,2013-02-03 13:15:00
8:34 AM,3.2,-0.4,85,29.82,3.0,West,4.6,-,N/A,Snow,Light Snow,260,2013-02-03 13:34:00
8:55 AM,5.0,-0.4,78,29.82,10.0,West,5.8,-,N/A,Snow,Light Snow,260,2013-02-03 13:55:00
9:14 AM,5.0,-0.4,78,29.81,7.0,WSW,3.5,-,N/A,Snow,Light Snow,250,2013-02-03 14:14:00
9:34 AM,5.0,-0.4,78,29.81,5.0,West,4.6,-,N/A,Snow,Light Snow,260,2013-02-03 14:34:00
9:55 AM,6.8,1.4,79,29.80,1.8,West,6.9,-,N/A,Snow,Light Snow,270,2013-02-03 14:55:00
10:14 AM,6.8,1.4,79,29.80,2.0,West,6.9,-,N/A,Snow,Light Snow,270,2013-02-03 15:14:00
10:35 AM,6.8,1.4,79,29.79,4.0,West,9.2,-,N/A,Snow,Light Snow,280,2013-02-03 15:35:00
10:52 AM,8.6,1.4,73,29.79,4.0,West,11.5,-,N/A,Snow,Light Snow,280,2013-02-03 15:52:00
11:14 AM,10.4,3.2,73,29.79,10.0,West,11.5,-,N/A,,Overcast,280,2013-02-03 16:14:00
11:34 AM,10.4,3.2,73,29.79,10.0,West,10.4,-,N/A,,Overcast,280,2013-02-03 16:34:00
11:55 AM,12.2,5.0,73,29.80,10.0,West,15.0,-,N/A,,Overcast,280,2013-02-03 16:55:00
12:14 PM,12.2,5.0,73,29.79,10.0,WNW,12.7,-,N/A,,Overcast,290,2013-02-03 17:14:00
12:35 PM,14.0,6.8,73,29.78,10.0,West,12.7,-,N/A,,Mostly Cloudy,280,2013-02-03 17:35:00
12:54 PM,15.8,6.8,68,29.79,7.0,WNW,20.7,26.5,N/A,,Mostly Cloudy,290,2013-02-03 17:54:00
1:11 PM,15.8,6.8,68,29.79,4.0,WNW,20.7,28.8,N/A,,Haze,300,2013-02-03 18:11:00
1:35 PM,15.8,6.8,68,29.80,2.0,NW,21.9,27.6,N/A,,Overcast,320,2013-02-03 18:35:00
1:55 PM,17.6,5.0,58,29.80,5.0,NW,18.4,25.3,N/A,,Mostly Cloudy,320,2013-02-03 18:55:00
2:15 PM,15.8,3.2,58,29.81,4.0,NW,18.4,27.6,N/A,,Scattered Clouds,310,2013-02-03 19:15:00
2:35 PM,15.8,3.2,58,29.81,4.0,NW,20.7,31.1,N/A,,Clear,320,2013-02-03 19:35:00
2:55 PM,15.8,1.4,53,29.82,5.0,NW,19.6,28.8,N/A,,Clear,320,2013-02-03 19:55:00
3:15 PM,15.8,1.4,53,29.83,10.0,NW,18.4,25.3,N/A,,Scattered Clouds,310,2013-02-03 20:15:00
3:28 PM,15.8,1.4,53,29.84,7.0,NW,19.6,28.8,N/A,,Scattered Clouds,320,2013-02-03 20:28:00
3:54 PM,14.0,1.4,57,29.85,10.0,NW,11.5,-,N/A,,Scattered Clouds,310,2013-02-03 20:54:00
4:15 PM,12.2,-0.4,57,29.87,10.0,WNW,16.1,23.0,N/A,Snow,Light Snow,300,2013-02-03 21:15:00
4:35 PM,14.0,-0.4,53,29.87,10.0,NW,13.8,21.9,N/A,,Scattered Clouds,310,2013-02-03 21:35:00
4:54 PM,12.2,-2.2,53,29.88,10.0,WNW,19.6,25.3,N/A,,Scattered Clouds,300,2013-02-03 21:54:00
5:34 PM,10.4,-2.2,57,29.89,10.0,WNW,11.5,21.9,N/A,,Clear,290,2013-02-03 22:34:00
5:54 PM,8.6,-2.2,62,29.90,10.0,WNW,8.1,-,N/A,,Clear,290,2013-02-03 22:54:00
6:15 PM,8.6,-4.0,57,29.90,10.0,WNW,8.1,-,N/A,,Clear,290,2013-02-03 23:15:00
6:34 PM,6.8,-5.8,56,29.91,10.0,West,9.2,-,N/A,,Scattered Clouds,280,2013-02-03 23:34:00
6:55 PM,6.8,-5.8,56,29.92,10.0,West,5.8,-,N/A,,Scattered Clouds,270,2013-02-03 23:55:00
7:14 PM,6.8,-4.0,61,29.92,10.0,West,5.8,-,N/A,,Scattered Clouds,270,2013-02-04 00:14:00
7:34 PM,3.2,-5.8,66,29.92,10.0,West,6.9,-,N/A,,Mostly Cloudy,270,2013-02-04 00:34:00
7:55 PM,5.0,-4.0,66,29.93,10.0,West,5.8,-,N/A,,Mostly Cloudy,270,2013-02-04 00:55:00
8:14 PM,5.0,-5.8,61,29.93,10.0,West,5.8,-,N/A,,Scattered Clouds,270,2013-02-04 01:14:00
8:20 PM,3.2,-5.8,66,-9999,10.0,West,5.8,-,N/A,,Mostly Cloudy,270,2013-02-04 01:20:00
8:54 PM,5.0,-4.0,66,29.93,10.0,WSW,4.6,-,N/A,,Mostly Cloudy,250,2013-02-04 01:54:00
9:14 PM,5.0,-5.8,61,29.93,10.0,West,6.9,-,N/A,,Scattered Clouds,270,2013-02-04 02:14:00
9:25 PM,5.0,-5.8,61,29.93,10.0,West,5.8,-,N/A,,Scattered Clouds,270,2013-02-04 02:25:00
9:39 PM,5.0,-4.0,66,29.93,10.0,West,6.9,-,N/A,,Mostly Cloudy,270,2013-02-04 02:39:00
10:14 PM,5.0,-4.0,66,29.94,10.0,West,6.9,-,N/A,,Mostly Cloudy,270,2013-02-04 03:14:00
10:32 PM,3.2,-4.0,72,29.94,10.0,West,5.8,-,N/A,,Overcast,270,2013-02-04 03:32:00
10:53 PM,3.2,-4.0,72,29.93,10.0,West,4.6,-,N/A,,Mostly Cloudy,260,2013-02-04 03:53:00
11:15 PM,3.2,-4.0,72,29.93,10.0,West,8.1,-,N/A,,Scattered Clouds,260,2013-02-04 04:15:00
11:33 PM,3.2,-4.0,72,29.93,10.0,West,6.9,-,N/A,,Scattered Clouds,260,2013-02-04 04:33:00
11:55 PM,3.2,-4.0,72,29.93,10.0,West,6.9,-,N/A,,Scattered Clouds,280,2013-02-04 04:55:00